Rifle, CO

10:12 PM MDT on September 25, 2016 (GMT -0600)
Garfield County Regional

Weather History for KRIL - March, 2013

Change the Weather History Date:

Friday, March 1, 2013

  Actual Average Record
Temperature  
Mean Temperature 33 °F 35 °F  
Max Temperature 40 °F 48 °F 67 °F (1986)
Min Temperature 25 °F 23 °F -4 °F (1962)
Degree Days  
Heating Degree Days 32 30  
Month to date heating degree days 32 30  
Since 1 July heating degree days 5086 5027  
Cooling Degree Days 0 0  
Month to date cooling degree days 0 0  
Year to date cooling degree days 0 0  
Moisture  
Dew Point 24 °F    
Average Humidity 73    
Maximum Humidity 92    
Minimum Humidity 54    
Precipitation  
Precipitation T in 0.03 in 0.27 in (2006)
Month to date precipitation T 0.03  
Year to date precipitation 0.77 1.60  
Sea Level Pressure  
Sea Level Pressure 30.52 in    
Wind  
Wind Speed 2 mph (South)    
Max Wind Speed 12 mph    
Max Gust Speed 12 mph    
Visibility 10 miles    
Events Snow    
T = Trace of Precipitation, MM = Missing Value Source: NWS Daily Summary

Daily Weather History Graph

Daily Weather History Graph

Search for Another Location

Airport or City:

Trip Planner

Search our weather history database for the weather conditions in past years. The results will help you decide how hot, cold, wet, or windy it might be!

Date:

Astronomy

Mar. 01, 2013 Rise Set
Actual Time 6:43 AM MST 6:03 PM MST
Civil Twilight 6:16 AM MST 6:30 PM MST
Nautical Twilight 5:45 AM MST 7:01 PM MST
Astronomical Twilight 5:14 AM MST 7:32 PM MST
Moon 10:38 PM MST (3/1) 8:33 AM MST (3/1)
Length of Visible Light 12h 14m
Length of Day
11h 20m
Waning Gibbous, 83% of the Moon is Illuminated
Mar 1
Waning Gibbous
Mar 4
Last Quarter
Mar 11
New
Mar 19
First Quarter
Mar 27
Full

Hourly Weather History & Observations

Time (MST) Temp. Windchill Dew Point Humidity Pressure Visibility Wind Dir Wind Speed Gust Speed Precip Events Conditions
12:53 AM 28.0 °F 20.8 °F 19.9 °F 72% 30.48 in 10.0 mi WSW 6.9 mph - N/A   Overcast
1:53 AM 28.0 °F - 21.0 °F 75% 30.48 in 10.0 mi Calm Calm - N/A   Overcast
2:53 AM 28.0 °F - 21.9 °F 78% 30.47 in 9.0 mi Calm Calm - 0.00 in   Overcast
3:53 AM 27.0 °F 21.6 °F 23.0 °F 85% 30.48 in 4.0 mi Variable 4.6 mph - 0.00 in Snow Light Snow
5:53 AM 27.0 °F 19.5 °F 24.1 °F 89% 30.50 in 8.0 mi North 6.9 mph - 0.00 in   Overcast
6:53 AM 28.0 °F - 25.0 °F 88% 30.50 in 10.0 mi Calm Calm - N/A   Overcast
7:53 AM 28.0 °F - 25.0 °F 88% 30.52 in 10.0 mi Calm Calm - N/A   Overcast
8:53 AM 28.9 °F - 26.1 °F 89% 30.55 in 10.0 mi Calm Calm - N/A   Overcast
9:53 AM 30.9 °F - 26.1 °F 82% 30.57 in 10.0 mi Calm Calm - N/A   Overcast
10:53 AM 32.0 °F - 25.0 °F 75% 30.57 in 10.0 mi Calm Calm - N/A   Overcast
11:53 AM 33.1 °F 30.0 °F 25.0 °F 72% 30.57 in 10.0 mi East 3.5 mph - N/A   Overcast
12:53 PM 34.0 °F - 25.0 °F 70% 30.55 in 10.0 mi Calm Calm - N/A   Overcast
2:53 PM 37.0 °F - 25.0 °F 62% 30.50 in 10.0 mi Calm Calm - N/A   Overcast
3:53 PM 37.9 °F 34.4 °F 26.1 °F 62% 30.49 in 10.0 mi ESE 4.6 mph - N/A   Overcast
4:53 PM 39.9 °F - 25.0 °F 55% 30.47 in 10.0 mi Calm Calm - N/A   Overcast
5:53 PM 39.0 °F - 24.1 °F 55% 30.49 in 10.0 mi Calm Calm - N/A   Overcast
6:53 PM 36.0 °F - 25.0 °F 64% 30.51 in 10.0 mi Calm Calm - N/A   Mostly Cloudy
7:53 PM 32.0 °F - 25.0 °F 75% 30.53 in 10.0 mi Calm Calm - N/A   Clear
8:53 PM 30.0 °F 22.4 °F 24.1 °F 79% 30.54 in 10.0 mi South 8.1 mph - N/A   Clear
9:53 PM 28.0 °F 24.2 °F 23.0 °F 81% 30.55 in 10.0 mi South 3.5 mph - N/A   Clear
10:53 PM 28.0 °F 21.7 °F 21.9 °F 78% 30.56 in 10.0 mi SW 5.8 mph - N/A   Clear
11:53 PM 26.1 °F 19.4 °F 21.0 °F 81% 30.56 in 10.0 mi Variable 5.8 mph - N/A   Partly Cloudy